Nashua, NH

11:19 AM EDT on April 23, 2017 (GMT -0400)
Boire

Weather History for KASH - June, 2013

Change the Weather History Date:

Monday, June 24, 2013

  Actual Average Record
Temperature  
Mean Temperature 82 °F -  
Max Temperature 93 °F 78 °F 94 °F (1976)
Min Temperature 70 °F 53 °F 44 °F (1958)
Cooling Degree Days 16    
Growing Degree Days 32 (Base 50)    
Moisture  
Dew Point 67 °F    
Average Humidity 68    
Maximum Humidity 96    
Minimum Humidity 38    
Precipitation  
Precipitation 0.26 in - - ()
Sea Level Pressure  
Sea Level Pressure 30.58 in    
Wind  
Wind Speed 5 mph (NW)    
Max Wind Speed 18 mph    
Max Gust Speed 31 mph    
Visibility 9 miles    
Events Rain , Thunderstorm    
Averages and records for this station are not official NWS values.
T = Trace of Precipitation, MM = Missing Value Source: NWS Daily Summary

Daily Weather History Graph

Daily Weather History Graph

Search for Another Location

Airport or City:

Trip Planner

Search our weather history database for the weather conditions in past years. The results will help you decide how hot, cold, wet, or windy it might be!

Date:

Astronomy

Jun. 24, 2013 Rise Set
Actual Time 5:08 AM EDT 8:28 PM EDT
Civil Twilight 4:33 AM EDT 9:03 PM EDT
Nautical Twilight 3:47 AM EDT 9:49 PM EDT
Astronomical Twilight 2:51 AM EDT 10:45 PM EDT
Moon 9:24 PM EDT (6/24) 6:35 AM EDT (6/24)
Length of Visible Light 16h 30m
Length of Day
15h 19m
Full, 98% of the Moon is Illuminated
Jun 24
Full
Jun 30
Last Quarter
Jul 8
New
Jul 15
First Quarter
Jul 22
Full

Hourly Weather History & Observations

Time (EDT) Temp. Heat Index Dew Point Humidity Pressure Visibility Wind Dir Wind Speed Gust Speed Precip Events Conditions
12:51 AM 75.9 °F - 68.0 °F 76% 30.72 in 10.0 mi Variable 3.5 mph - N/A   Clear
1:51 AM 75.9 °F - 68.0 °F 76% 30.71 in 10.0 mi Calm Calm - N/A   Clear
2:51 AM 74.8 °F - 68.0 °F 79% 30.71 in 10.0 mi Calm Calm - N/A   Clear
3:51 AM 72.0 °F - 68.0 °F 87% 30.70 in 10.0 mi Calm Calm - N/A   Clear
4:51 AM 72.0 °F - 66.9 °F 84% 30.69 in 10.0 mi Calm Calm - N/A   Clear
5:51 AM 72.0 °F - 66.9 °F 84% 30.69 in 10.0 mi Calm Calm - N/A   Clear
6:51 AM 73.9 °F - 68.0 °F 82% 30.69 in 10.0 mi Calm Calm - N/A   Clear
7:51 AM 79.0 °F - 68.9 °F 71% 30.69 in 10.0 mi Variable 4.6 mph - N/A   Clear
8:51 AM 82.9 °F 86.3 °F 68.9 °F 62% 30.69 in 10.0 mi Variable 4.6 mph - N/A   Clear
9:51 AM 86.9 °F 91.0 °F 68.9 °F 55% 30.67 in 10.0 mi West 8.1 mph - N/A   Clear
10:51 AM 88.9 °F 91.8 °F 66.9 °F 48% 30.67 in 10.0 mi NW 11.5 mph - N/A   Clear
11:51 AM 90.9 °F 93.1 °F 65.8 °F 43% 30.66 in 10.0 mi NW 11.5 mph 23.0 mph N/A   Clear
12:51 PM 92.8 °F 95.6 °F 65.8 °F 41% 30.66 in 10.0 mi West 10.4 mph - N/A   Clear
1:51 PM 92.8 °F 95.2 °F 64.9 °F 40% 30.64 in 10.0 mi WNW 11.5 mph 19.6 mph N/A   Scattered Clouds
2:51 PM 92.8 °F 94.3 °F 63.9 °F 38% 30.63 in 10.0 mi NW 9.2 mph 17.3 mph N/A   Scattered Clouds
3:51 PM 93.9 °F 96.5 °F 65.8 °F 39% 30.60 in 10.0 mi NW 10.4 mph 17.3 mph N/A   Scattered Clouds
4:51 PM 92.8 °F 96.1 °F 66.9 °F 42% 30.59 in 10.0 mi WNW 12.7 mph 19.6 mph N/A   Scattered Clouds
5:51 PM 90.9 °F 94.8 °F 68.0 °F 47% 30.59 in 10.0 mi WNW 8.1 mph 17.3 mph N/A   Scattered Clouds
6:26 PM 87.8 °F 90.4 °F 66.2 °F 49% 29.89 in 10.0 mi North 18.4 mph 31.1 mph N/A Thunderstorm Mostly Cloudy
6:51 PM 77.0 °F - 68.0 °F 74% 30.62 in 2.5 mi North 18.4 mph 31.1 mph 0.17 in Rain , Thunderstorm Heavy Thunderstorms and Rain
7:05 PM 75.2 °F - 68.0 °F 78% 29.91 in 4.0 mi North 6.9 mph - 0.04 in Rain , Thunderstorm Light Thunderstorms and Rain
7:24 PM 73.4 °F - 69.8 °F 88% 29.92 in 10.0 mi NW 8.1 mph - 0.04 in Rain Light Rain
7:51 PM 72.0 °F - 68.0 °F 87% 30.65 in 10.0 mi Calm Calm - 0.04 in   Mostly Cloudy
8:51 PM 70.9 °F - 68.0 °F 91% 30.66 in 9.0 mi Calm Calm - 0.02 in Rain Light Rain
9:51 PM 70.0 °F - 68.0 °F 93% 30.67 in 9.0 mi Calm Calm - 0.03 in Rain Light Rain
10:51 PM 70.9 °F - 68.0 °F 91% 30.66 in 9.0 mi Calm Calm - 0.00 in   Clear
11:51 PM 70.0 °F - 68.9 °F 96% 30.64 in 7.0 mi Calm Calm - N/A   Partly Cloudy